Tracking 19219 objects as of 19-Jul-2018
HD Live streaming from Space Station
objects crossing your sky now

SL-12 R/B(AUX MOTOR)

Track SL-12 R/B(AUX MOTOR) now!
10-day predictions


NORAD ID: 23402
Int'l Code: 1994-076G
Perigee: 775.9 km
Apogee: 18,634.1 km
Inclination: 65.4 °
Period: 338.1 minutes
Semi major axis: 16076 km
RCS: 0.7371 m2 (medium)
Launch date: November 20, 1994
Source: Commonwealth of Independent States (former USSR) (CIS)
Launch site: TYURATAM MISSILE AND SPACE COMPLEX (TTMTR)

Note: This is a ROCKET BODY
aabbcc
Your satellite tracking list
Your tracking list is empty




NASA's NSSDC Master Catalog

Two Line Element Set (TLE):
1 23402U 94076G   18200.32767192 +.00000059 +00000-0 +35073-3 0  9990
2 23402 065.4334 263.3496 5554292 264.6323 033.1497 04.25926046366504
Source of the keplerian elements: AFSPC